| time (UTC) | temp C | wind direction | speed KPH | gust KPH | rain 1hr cm | rain 24hr cm | rain mn cm | humidity % | barometer mb |
| 20260505140220 | 18 | 189 | 6.4 | 9.7 | 0.00 | 0.00 | 0.00 | 52 | 1007.9 |
| 20260505124420 | 16 | 168 | 8.0 | 14.5 | 0.00 | 0.00 | 0.00 | 60 | 1008.6 |
| 20260505122420 | 15 | 183 | 8.0 | 19.3 | 0.00 | 0.00 | 0.00 | 63 | 1008.7 |
| 20260505121519 | 14 | 193 | 6.4 | 8.0 | 0.00 | 0.00 | 0.00 | 65 | 1008.8 |
| 20260505120520 | 13 | 152 | 6.4 | 12.9 | 0.00 | 0.00 | 0.00 | 67 | 1008.9 |
| 20260505115521 | 13 | 191 | 6.4 | 11.3 | 0.00 | 0.00 | 0.00 | 68 | 1009.2 |
| 20260505113520 | 12 | 168 | 8.0 | 14.5 | 0.00 | 0.00 | 0.00 | 72 | 1009.1 |
| 20260505112522 | 11 | 186 | 3.2 | 6.4 | 0.00 | 0.00 | 0.00 | 76 | 1008.8 |
| 20260505111521 | 10 | 170 | 6.4 | 8.0 | 0.00 | 0.00 | 0.00 | 81 | 1008.8 |
| 20260505110619 | 10 | 178 | 6.4 | 9.7 | 0.00 | 0.00 | 0.00 | 83 | 1008.7 |
| 20260505101720 | 7 | 166 | 4.8 | 6.4 | 0.00 | 0.00 | 0.00 | 95 | 1008.7 |
| 20260505095722 | 6 | 157 | 4.8 | 4.8 | 0.00 | 0.00 | 0.00 | 95 | 1008.5 |
| 20260505094722 | 5 | 142 | 4.8 | 6.4 | 0.00 | 0.00 | 0.00 | 96 | 1008.4 |
| 20260505093738 | 5 | 135 | 1.6 | 1.6 | 0.00 | 0.00 | 0.00 | 96 | 1008.3 |
| 20260505092719 | 5 | 135 | 0.0 | 0.0 | 0.00 | 0.00 | 0.00 | 96 | 1008.2 |
| 20260505090722 | 5 | 135 | 0.0 | 1.6 | 0.00 | 0.00 | 0.00 | 96 | 1008.3 |
| 20260505085820 | 5 | 135 | 0.0 | 1.6 | 0.00 | 0.00 | 0.00 | 96 | 1008.4 |
| 20260505083822 | 5 | 135 | 1.6 | 3.2 | 0.00 | 0.00 | 0.00 | 95 | 1008.5 |
| 20260505082820 | 4 | 135 | 0.0 | 3.2 | 0.00 | 0.00 | 0.00 | 96 | 1008.4 |
| 20260505081919 | 5 | 135 | 0.0 | 0.0 | 0.00 | 0.00 | 0.00 | 96 | 1008.5 |
| 20260505075920 | 5 | 135 | 0.0 | 1.6 | 0.00 | 0.00 | 0.00 | 96 | 1008.4 |
| 20260505074020 | 5 | 135 | 0.0 | 1.6 | 0.00 | 0.00 | 0.00 | 96 | 1008.6 |
| 20260505073020 | 5 | 135 | 0.0 | 0.0 | 0.00 | 0.00 | 0.00 | 96 | 1008.5 |
| 20260505072019 | 5 | 135 | 0.0 | 0.0 | 0.00 | 0.00 | 0.00 | 95 | 1008.5 |
| 20260505071020 | 5 | 135 | 0.0 | 0.0 | 0.00 | 0.00 | 0.00 | 95 | 1008.6 |
| 20260505070021 | 5 | 135 | 0.0 | 0.0 | 0.00 | 0.00 | 0.00 | 95 | 1008.6 |
| 20260505065019 | 5 | 135 | 0.0 | 0.0 | 0.00 | 0.00 | 0.00 | 95 | 1008.4 |
| 20260505064020 | 5 | 135 | 0.0 | 0.0 | 0.00 | 0.00 | 0.00 | 95 | 1008.7 |
| 20260505062121 | 6 | 135 | 0.0 | 0.0 | 0.00 | 0.00 | 0.00 | 94 | 1008.5 |
| 20260505060120 | 5 | 135 | 0.0 | 0.0 | 0.00 | 0.00 | 0.00 | 94 | 1008.4 |
| 20260505054218 | 6 | 135 | 0.0 | 0.0 | 0.00 | 0.00 | 0.00 | 94 | 1008.5 |
| 20260505053220 | 6 | 135 | 0.0 | 0.0 | 0.00 | 0.00 | 0.00 | 92 | 1008.6 |
| 20260505052220 | 6 | 135 | 0.0 | 0.0 | 0.00 | 0.00 | 0.00 | 92 | 1008.5 |
| 20260505051220 | 6 | 135 | 0.0 | 0.0 | 0.00 | 0.00 | 0.00 | 92 | 1008.3 |
| 20260505050220 | 6 | 135 | 0.0 | 0.0 | 0.00 | 0.00 | 0.00 | 91 | 1008.4 |
| 20260505041321 | 7 | 157 | 0.0 | 0.0 | 0.00 | 0.00 | 0.00 | 89 | 1008.3 |
| 20260505040419 | 7 | 157 | 0.0 | 0.0 | 0.00 | 0.00 | 0.00 | 88 | 1008.2 |
| 20260505035506 | 7 | 157 | 0.0 | 0.0 | 0.00 | 0.00 | 0.00 | 88 | 1008.3 |
| 20260505034605 | 7 | 157 | 0.0 | 0.0 | 0.00 | 0.00 | 0.00 | 88 | 1008.2 |
| 20260505034505 | 7 | 157 | 0.0 | 0.0 | 0.00 | 0.00 | 0.00 | 88 | 1008.3 |
| 20260505031604 | 8 | 157 | 0.0 | 0.0 | 0.00 | 0.00 | 0.00 | 84 | 1008.2 |
| 20260505030604 | 8 | 157 | 0.0 | 0.0 | 0.00 | 0.00 | 0.00 | 83 | 1008.2 |
| 20260505025605 | 8 | 157 | 0.0 | 1.6 | 0.00 | 0.00 | 0.00 | 84 | 1008.3 |
| 20260505024704 | 9 | 157 | 0.0 | 0.0 | 0.00 | 0.00 | 0.00 | 83 | 1008.7 |
| 20260505023707 | 9 | 157 | 0.0 | 0.0 | 0.00 | 0.00 | 0.00 | 83 | 1008.7 |
| 20260505022707 | 9 | 157 | 3.2 | 4.8 | 0.00 | 0.00 | 0.00 | 83 | 1008.5 |
| 20260505021704 | 9 | 157 | 0.0 | 0.0 | 0.00 | 0.00 | 0.00 | 82 | 1008.7 |
| 20260505020705 | 9 | 157 | 0.0 | 0.0 | 0.00 | 0.00 | 0.00 | 81 | 1008.5 |
| 20260505014803 | 10 | 157 | 0.0 | 0.0 | 0.00 | 0.00 | 0.00 | 81 | 1008.8 |
| 20260505013804 | 10 | 157 | 0.0 | 0.0 | 0.00 | 0.00 | 0.00 | 80 | 1008.6 |
| 20260505012904 | 10 | 157 | 0.0 | 3.2 | 0.00 | 0.00 | 0.00 | 79 | 1008.5 |
| 20260505011905 | 10 | 159 | 1.6 | 3.2 | 0.00 | 0.00 | 0.00 | 78 | 1008.2 |
| 20260505010907 | 10 | 337 | 0.0 | 0.0 | 0.00 | 0.00 | 0.00 | 76 | 1008.0 |
| 20260505005006 | 10 | 337 | 0.0 | 0.0 | 0.00 | 0.00 | 0.00 | 74 | 1008.0 |
| 20260505004104 | 10 | 337 | 0.0 | 0.0 | 0.00 | 0.00 | 0.00 | 72 | 1007.8 |
| 20260505003107 | 11 | 337 | 0.0 | 0.0 | 0.00 | 0.00 | 0.00 | 71 | 1007.6 |
| 20260505001105 | 11 | 337 | 0.0 | 0.0 | 0.00 | 0.00 | 0.00 | 68 | 1007.4 |
| 20260505000106 | 12 | 337 | 0.0 | 0.0 | 0.00 | 0.00 | 0.00 | 67 | 1007.4 |
| 20260504235106 | 12 | 337 | 0.0 | 0.0 | 0.00 | 0.00 | 0.00 | 64 | 1007.3 |
| 20260504233106 | 13 | 337 | 0.0 | 0.0 | 0.00 | 0.00 | 0.00 | 58 | 1007.1 |
| 20260504232105 | 14 | 337 | 0.0 | 0.0 | 0.00 | 0.00 | 0.00 | 56 | 1006.8 |
| 20260504231204 | 15 | 337 | 0.0 | 1.6 | 0.00 | 0.00 | 0.00 | 55 | 1006.8 |
| 20260504230304 | 15 | 338 | 1.6 | 6.4 | 0.00 | 0.00 | 0.00 | 54 | 1006.7 |
| 20260504225307 | 15 | 334 | 3.2 | 4.8 | 0.00 | 0.00 | 0.00 | 55 | 1006.5 |
| 20260504224305 | 15 | 21 | 3.2 | 6.4 | 0.00 | 0.00 | 0.00 | 55 | 1006.5 |
| 20260504223320 | 15 | 337 | 1.6 | 3.2 | 0.00 | 0.00 | 0.00 | 55 | 1006.4 |
| 20260504222305 | 15 | 343 | 0.0 | 4.8 | 0.00 | 0.00 | 0.00 | 55 | 1006.3 |
| 20260504220503 | 15 | 327 | 1.6 | 6.4 | 0.00 | 0.00 | 0.00 | 55 | 1006.3 |
| 20260504215505 | 15 | 337 | 1.6 | 3.2 | 0.00 | 0.00 | 0.00 | 54 | 1006.2 |
| 20260504214507 | 15 | 358 | 1.6 | 4.8 | 0.00 | 0.00 | 0.00 | 55 | 1006.1 |
| 20260504213504 | 15 | 336 | 8.0 | 12.9 | 0.00 | 0.00 | 0.00 | 54 | 1006.0 |
| 20260504211605 | 15 | 338 | 11.3 | 22.5 | 0.00 | 0.00 | 0.00 | 54 | 1006.0 |
| 20260504210604 | 15 | 340 | 8.0 | 16.1 | 0.00 | 0.00 | 0.00 | 54 | 1005.8 |
| 20260504205608 | 15 | 333 | 8.0 | 16.1 | 0.00 | 0.00 | 0.00 | 55 | 1005.7 |
| 20260504204605 | 15 | 20 | 8.0 | 12.9 | 0.00 | 0.00 | 0.00 | 55 | 1005.7 |
| 20260504203605 | 15 | 42 | 9.7 | 19.3 | 0.00 | 0.00 | 0.00 | 56 | 1005.7 |
| 20260504202605 | 15 | 50 | 6.4 | 11.3 | 0.00 | 0.00 | 0.00 | 57 | 1005.6 |
| 20260504200606 | 15 | 342 | 8.0 | 11.3 | 0.00 | 0.00 | 0.00 | 57 | 1005.7 |
| 20260504195605 | 15 | 11 | 6.4 | 12.9 | 0.00 | 0.00 | 0.00 | 55 | 1005.4 |
| 20260504194604 | 15 | 26 | 6.4 | 11.3 | 0.00 | 0.00 | 0.00 | 57 | 1005.6 |
| 20260504193606 | 15 | 348 | 9.7 | 19.3 | 0.00 | 0.00 | 0.00 | 55 | 1005.5 |
| 20260504192607 | 15 | 339 | 11.3 | 20.9 | 0.00 | 0.00 | 0.00 | 57 | 1005.7 |
| 20260504191605 | 15 | 25 | 8.0 | 19.3 | 0.00 | 0.00 | 0.00 | 57 | 1005.6 |
| 20260504190605 | 14 | 6 | 8.0 | 11.3 | 0.00 | 0.00 | 0.00 | 58 | 1005.7 |
| 20260504185704 | 13 | 351 | 9.7 | 16.1 | 0.00 | 0.00 | 0.00 | 59 | 1005.8 |
| 20260504184803 | 13 | 351 | 4.8 | 12.9 | 0.00 | 0.00 | 0.00 | 60 | 1005.8 |
| 20260504183804 | 13 | 56 | 4.8 | 6.4 | 0.00 | 0.00 | 0.00 | 59 | 1005.9 |
| 20260504182805 | 13 | 168 | 8.0 | 12.9 | 0.00 | 0.00 | 0.00 | 60 | 1006.0 |
| 20260504181805 | 13 | 156 | 9.7 | 16.1 | 0.00 | 0.00 | 0.00 | 61 | 1006.2 |
| 20260504180903 | 12 | 342 | 8.0 | 11.3 | 0.00 | 0.00 | 0.00 | 61 | 1006.1 |
| 20260504175905 | 12 | 337 | 4.8 | 8.0 | 0.00 | 0.00 | 0.00 | 61 | 1006.3 |
| 20260504175003 | 12 | 52 | 4.8 | 6.4 | 0.00 | 0.00 | 0.00 | 59 | 1006.4 |
| 20260504173103 | 12 | 180 | 3.2 | 6.4 | 0.00 | 0.00 | 0.00 | 56 | 1006.1 |
| 20260504172106 | 13 | 332 | 6.4 | 11.3 | 0.00 | 0.00 | 0.00 | 56 | 1006.1 |
| 20260504171104 | 12 | 360 | 3.2 | 6.4 | 0.00 | 0.00 | 0.00 | 56 | 1006.0 |
| 20260504170203 | 12 | 339 | 8.0 | 12.9 | 0.00 | 0.00 | 0.00 | 57 | 1005.7 |
| 20260504160304 | 13 | 78 | 6.4 | 8.0 | 0.00 | 0.00 | 0.00 | 53 | 1005.6 |
| 20260504150505 | 12 | 281 | 11.3 | 11.3 | 0.00 | 0.00 | 0.00 | 52 | 1006.4 |